sat.trackr.live / text

‹ back to catalog

STARLINK-32864

NORAD 62862 · 2025-022J

PAYLOAD ACTIVE UNKNOWN

§ Identity

Operator
Country
US
Launch date
2025-02-01
Launch site
AFWTR
Launch vehicle
Mass (kg)
RCS (m²)

Purposes: comms

External: N2YO · Heavens-Above · Gunter

§ Orbital elements

Epoch: 2026-09-21T10:05:55.226112Z

Period
93.85 min
Inclination
53.1604°
Eccentricity
0.0000796
Mean motion
15.34412448 rev/d
Perigee alt
462.1 km
Apogee alt
463.2 km
Semi-major
6,840.8 km
B*
5.1773e-4
RAAN
297.1763°
Arg perigee
77.9650°
Mean anomaly
282.1442°
Rev number
9,191

§ Raw data

STARLINK-328641 62862U 25022J   26264.42077808  .00017163  00000+0  51773-3 0  99942 62862  53.1604 297.1763 0000796  77.9650 282.1442 15.34412448 91915

JSON: /api/v1/satellites/62862 · /tle

For live sub-satellite position, see the globe view (requires WebGL).

§ Visibility from observer

Set your observer location to see the next 7 days of passes ≥ 10°. The values pass through the URL so the page stays shareable.

No JS? Fill the form by hand. The geolocation button needs JavaScript.